Location: Unspecified
(48.2082°N, 0.0000°E)
Time: 15:26:57
(UTC+00:00)

S-56A Canister/Altair - Pass Details

Date: 29 June 2019
Orbit: 632 x 2500 km, 38.9° (Epoch: 20 July)

Event Time Altitude Azimuth Distance (km) Brightness Sun altitude
Rises 11:40:48 0° 203° (SSW) 6,109 12.4 64.6°
Reaches altitude 10° 11:46:09 10° 191° (S) 4,958 12.2 64.8°
Maximum altitude 11:55:42 23° 147° (SSE) 3,554 11.7 65.0°
Drops below altitude 10° 12:03:30 10° 101° (E) 3,973 11.4 65.0°
Sets 12:07:08 0° 87° (E) 4,665 11.5 65.0°
